Location: Unspecified
(0.0000°N, 0.0000°E)
Time: 03:05:57
(UTC+00:00)

CZ-3C DEB - Pass Details

Date: 22 February 2026
Orbit: 408 x 32633 km, 21.5° (Epoch: 28 September)

Event Time Altitude Azimuth Distance (km) Brightness Sun altitude
Exits shadow 01:16:56 59° 11° (NNE) 11,631 ? -71.2°
Maximum altitude 08:23:56 84° 45° (NE) 17,393 ? 32.0°
Drops below altitude 10° 09:26:38 10° 113° (ESE) 7,236 ? 47.3°
Sets 09:29:34 0° 113° (ESE) 7,356 ? 48.0°
